This is the latest recevied weather packets stored in our database for station/object N6RDS-8. If no packets are shown the sender has not sent any weather packets the latest 10 day(s).
| Time | Temp. | Humidity | Pressure | Rain* | Wind** | Luminosity | Snow |
|---|---|---|---|---|---|---|---|
| 1778085506 | 18.33° C | 41% | 1020.1 hPa | 0 mm | - | 554 W/m² | - |
| 1778085205 | 18.89° C | 40% | 1020.1 hPa | 0 mm | - | 541 W/m² | - |
| 1778084901 | 18.33° C | 40% | 1020.3 hPa | 0 mm | - | 527 W/m² | - |
| 1778084600 | 17.78° C | 43% | 1020 hPa | 0 mm | - | 515 W/m² | - |
| 1778084297 | 17.78° C | 44% | 1020.3 hPa | 0 mm | - | 501 W/m² | - |
| 1778083994 | 17.78° C | 44% | 1019.9 hPa | 0 mm | - | 487 W/m² | - |
| 1778083692 | 17.78° C | 44% | 1020.1 hPa | 0 mm | - | 474 W/m² | - |
| 1778083388 | 17.22° C | 45% | 1020.3 hPa | 0 mm | - | 458 W/m² | - |
| 1778083087 | 16.67° C | 46% | 1020 hPa | 0 mm | - | 445 W/m² | - |
| 1778082783 | 16.67° C | 48% | 1020.1 hPa | 0 mm | - | 427 W/m² | - |
| 1778081650 | 16.11° C | 49% | 1020.1 hPa | 0 mm | - | 400 W/m² | - |
| 1778081348 | 16.11° C | 48% | 1020 hPa | 0 mm | - | 360 W/m² | - |
| 1778081044 | 16.11° C | 49% | 1020.3 hPa | 0 mm | - | 343 W/m² | - |
| 1778080743 | 16.11° C | 49% | 1020.3 hPa | 0 mm | - | 328 W/m² | - |
| 1778080440 | 15° C | 52% | 1020.3 hPa | 0 mm | - | 314 W/m² | - |
| 1778080137 | 15° C | 53% | 1020.5 hPa | 0 mm | - | 298 W/m² | - |
| 1778079833 | 15° C | 54% | 1020.4 hPa | 0 mm | - | 282 W/m² | - |
| 1778079530 | 14.44° C | 54% | 1020.5 hPa | 0 mm | - | 267 W/m² | - |
| 1778079226 | 13.89° C | 56% | 1020.3 hPa | 0 mm | - | 253 W/m² | - |
| 1778078924 | 13.89° C | 57% | 1020.4 hPa | 0 mm | - | 238 W/m² | - |
| 1778078620 | 13.89° C | 57% | 1020.4 hPa | 0 mm | - | 221 W/m² | - |
| 1778078319 | 13.33° C | 58% | 1020.4 hPa | 0 mm | - | 208 W/m² | - |
| 1778078016 | 13.33° C | 59% | 1020.4 hPa | 0 mm | - | 191 W/m² | - |
| 1778077714 | 13.33° C | 58% | 1020.5 hPa | 0 mm | - | 177 W/m² | - |
| 1778077411 | 12.22° C | 60% | 1020.5 hPa | 0 mm | - | 162 W/m² | - |
* Rain latest hour (hover to see other rain measurements)
** Current wind speed in m/s (hover to see current wind gust speed)